| time (UTC) | temp F | wind direction | speed MPH | gust MPH | rain 1hr in | rain 24hr in | rain mn in | humidity % | barometer mb |
| 20260505195005 | 62 | 187 | 2.0 | 2.0 | 0.00 | 0.01 | 0.01 | 92 | 1012.3 |
| 20260505194005 | 62 | 0 | 0.0 | 2.0 | 0.00 | 0.01 | 0.01 | 92 | 1012.2 |
| 20260505193007 | 63 | 288 | 1.0 | 2.0 | 0.00 | 0.01 | 0.01 | 91 | 1012.2 |
| 20260505192004 | 63 | 315 | 1.0 | 2.0 | 0.00 | 0.01 | 0.01 | 91 | 1012.1 |
| 20260505191004 | 63 | 0 | 0.0 | 2.0 | 0.00 | 0.01 | 0.01 | 88 | 1012.0 |
| 20260505185004 | 62 | 223 | 1.0 | 2.0 | 0.00 | 0.01 | 0.01 | 91 | 1012.1 |
| 20260505184005 | 63 | 278 | 1.0 | 2.0 | 0.00 | 0.01 | 0.01 | 89 | 1011.9 |
| 20260505183004 | 64 | 0 | 0.0 | 2.0 | 0.00 | 0.01 | 0.01 | 88 | 1011.6 |
| 20260505182004 | 64 | 0 | 0.0 | 4.0 | 0.00 | 0.01 | 0.01 | 87 | 1011.8 |
| 20260505181004 | 63 | 230 | 2.0 | 4.0 | 0.00 | 0.01 | 0.01 | 89 | 1011.8 |
| 20260505180004 | 64 | 0 | 0.0 | 0.0 | 0.00 | 0.01 | 0.01 | 93 | 1012.0 |
| 20260505175005 | 64 | 0 | 0.0 | 2.0 | 0.00 | 0.01 | 0.01 | 92 | 1011.8 |
| 20260505174004 | 64 | 0 | 0.0 | 0.0 | 0.00 | 0.01 | 0.01 | 92 | 1011.9 |
| 20260505173005 | 65 | 0 | 0.0 | 2.0 | 0.00 | 0.01 | 0.01 | 91 | 1011.7 |
| 20260505172004 | 65 | 0 | 0.0 | 2.0 | 0.00 | 0.01 | 0.01 | 90 | 1011.9 |
| 20260505170004 | 65 | 0 | 0.0 | 2.0 | 0.00 | 0.01 | 0.01 | 89 | 1012.0 |
| 20260505165004 | 66 | 7 | 2.0 | 4.0 | 0.00 | 0.01 | 0.01 | 88 | 1011.8 |
| 20260505163004 | 67 | 0 | 0.0 | 2.0 | 0.00 | 0.01 | 0.01 | 85 | 1011.5 |
| 20260505162004 | 67 | 0 | 0.0 | 2.0 | 0.00 | 0.01 | 0.01 | 86 | 1011.9 |
| 20260505161004 | 66 | 0 | 0.0 | 2.0 | 0.00 | 0.01 | 0.01 | 89 | 1011.8 |
| 20260505152004 | 66 | 68 | 2.0 | 2.0 | 0.00 | 0.01 | 0.01 | 88 | 1012.1 |
| 20260505151003 | 66 | 0 | 0.0 | 2.0 | 0.00 | 0.01 | 0.01 | 89 | 1011.8 |
| 20260505125004 | 66 | 19 | 2.0 | 4.0 | 0.00 | 0.01 | 0.01 | 81 | 1012.5 |
| 20260505124003 | 66 | 14 | 3.0 | 4.0 | 0.00 | 0.01 | 0.01 | 82 | 1012.5 |
| 20260505123004 | 66 | 20 | 1.0 | 2.0 | 0.00 | 0.01 | 0.01 | 82 | 1012.5 |
| 20260505122003 | 65 | 0 | 0.0 | 4.0 | 0.00 | 0.01 | 0.01 | 80 | 1012.7 |
| 20260505121004 | 66 | 341 | 2.0 | 4.0 | 0.00 | 0.01 | 0.01 | 82 | 1012.8 |
| 20260505120005 | 65 | 357 | 2.0 | 6.0 | 0.00 | 0.01 | 0.01 | 78 | 1012.8 |
| 20260505115004 | 65 | 137 | 1.0 | 13.0 | 0.00 | 0.01 | 0.01 | 80 | 1013.1 |
| 20260505114004 | 64 | 46 | 3.0 | 4.0 | 0.00 | 0.01 | 0.01 | 87 | 1013.1 |
| 20260505113003 | 64 | 5 | 2.0 | 6.0 | 0.00 | 0.01 | 0.01 | 89 | 1013.0 |
| 20260505101003 | 63 | 354 | 2.0 | 4.0 | 0.01 | 0.01 | 0.01 | 92 | 1013.8 |
| 20260505100004 | 64 | 19 | 1.0 | 4.0 | 0.01 | 0.01 | 0.01 | 91 | 1013.7 |
| 20260505094004 | 64 | 0 | 0.0 | 2.0 | 0.00 | 0.00 | 0.00 | 88 | 1013.7 |
| 20260505093003 | 64 | 0 | 0.0 | 4.0 | 0.00 | 0.00 | 0.00 | 86 | 1013.7 |
| 20260505092003 | 65 | 103 | 2.0 | 4.0 | 0.00 | 0.00 | 0.00 | 84 | 1013.6 |
| 20260505091003 | 66 | 45 | 2.0 | 4.0 | 0.00 | 0.00 | 0.00 | 82 | 1013.5 |
| 20260505085003 | 66 | 19 | 1.0 | 4.0 | 0.00 | 0.00 | 0.00 | 79 | 1013.6 |
| 20260505084003 | 66 | 57 | 2.0 | 4.0 | 0.00 | 0.00 | 0.00 | 81 | 1013.5 |
| 20260505083003 | 66 | 55 | 2.0 | 4.0 | 0.00 | 0.00 | 0.00 | 81 | 1013.6 |
| 20260505082003 | 67 | 105 | 2.0 | 4.0 | 0.00 | 0.00 | 0.00 | 78 | 1013.6 |
| 20260505081003 | 67 | 0 | 0.0 | 2.0 | 0.00 | 0.00 | 0.00 | 74 | 1013.5 |
| 20260505080003 | 65 | 0 | 0.0 | 2.0 | 0.00 | 0.00 | 0.00 | 77 | 1013.5 |
| 20260505075003 | 64 | 53 | 1.0 | 2.0 | 0.00 | 0.00 | 0.00 | 80 | 1013.6 |
| 20260505074003 | 62 | 0 | 0.0 | 4.0 | 0.00 | 0.00 | 0.00 | 82 | 1013.7 |
| 20260505073004 | 63 | 0 | 0.0 | 2.0 | 0.00 | 0.00 | 0.00 | 81 | 1013.7 |
| 20260505071003 | 63 | 0 | 0.0 | 2.0 | 0.00 | 0.00 | 0.00 | 82 | 1013.4 |
| 20260505070004 | 63 | 0 | 0.0 | 2.0 | 0.00 | 0.00 | 0.00 | 80 | 1013.8 |
| 20260505065003 | 63 | 248 | 1.0 | 4.0 | 0.00 | 0.00 | 0.00 | 78 | 1013.6 |
| 20260505064003 | 62 | 260 | 2.0 | 4.0 | 0.00 | 0.00 | 0.00 | 82 | 1013.9 |
| 20260505063003 | 61 | 101 | 2.0 | 4.0 | 0.00 | 0.00 | 0.00 | 82 | 1013.7 |
| 20260505062003 | 61 | 0 | 0.0 | 4.0 | 0.00 | 0.00 | 0.00 | 84 | 1013.7 |
| 20260505061004 | 60 | 350 | 1.0 | 2.0 | 0.00 | 0.00 | 0.00 | 84 | 1013.7 |
| 20260505060004 | 61 | 306 | 2.0 | 4.0 | 0.00 | 0.00 | 0.00 | 81 | 1013.6 |
| 20260505055003 | 62 | 261 | 2.0 | 4.0 | 0.00 | 0.00 | 0.00 | 80 | 1013.8 |
| 20260505054005 | 61 | 252 | 2.0 | 4.0 | 0.00 | 0.00 | 0.00 | 80 | 1013.6 |
| 20260505053004 | 62 | 237 | 2.0 | 4.0 | 0.00 | 0.00 | 0.00 | 78 | 1013.4 |
| 20260505052003 | 63 | 145 | 2.0 | 4.0 | 0.00 | 0.00 | 0.00 | 73 | 1013.5 |
| 20260505051002 | 63 | 90 | 2.0 | 11.0 | 0.00 | 0.00 | 0.00 | 75 | 1013.5 |
| 20260505041003 | 60 | 331 | 2.0 | 2.0 | 0.00 | 0.00 | 0.00 | 86 | 1013.3 |
| 20260505040004 | 61 | 0 | 0.0 | 2.0 | 0.00 | 0.00 | 0.00 | 83 | 1013.3 |
| 20260505034002 | 60 | 211 | 1.0 | 2.0 | 0.00 | 0.00 | 0.00 | 86 | 1013.2 |
| 20260504230959 | 58 | 0 | 0.0 | 2.0 | 0.00 | 0.02 | 0.00 | 96 | 1014.5 |
| 20260504230002 | 58 | 0 | 0.0 | 2.0 | 0.00 | 0.02 | 0.00 | 96 | 1014.7 |
| 20260504225000 | 58 | 0 | 0.0 | 2.0 | 0.00 | 0.02 | 0.00 | 96 | 1014.7 |
| 20260504224000 | 58 | 0 | 0.0 | 2.0 | 0.00 | 0.02 | 0.00 | 96 | 1014.7 |
| 20260504223001 | 58 | 0 | 0.0 | 2.0 | 0.00 | 0.02 | 0.00 | 96 | 1014.7 |
| 20260504221001 | 58 | 0 | 0.0 | 0.0 | 0.00 | 0.02 | 0.00 | 96 | 1014.9 |
| 20260504214002 | 58 | 0 | 0.0 | 2.0 | 0.00 | 0.02 | 0.02 | 96 | 1015.0 |
| 20260504212002 | 59 | 0 | 0.0 | 2.0 | 0.00 | 0.02 | 0.02 | 96 | 1015.3 |
| 20260504211003 | 59 | 0 | 0.0 | 2.0 | 0.00 | 0.02 | 0.02 | 95 | 1015.2 |
| 20260504205002 | 58 | 0 | 0.0 | 2.0 | 0.00 | 0.02 | 0.02 | 95 | 1015.1 |
| 20260504204003 | 58 | 0 | 0.0 | 2.0 | 0.00 | 0.02 | 0.02 | 95 | 1015.2 |
| 20260504203003 | 59 | 0 | 0.0 | 0.0 | 0.00 | 0.02 | 0.02 | 95 | 1015.1 |
| 20260504202004 | 59 | 0 | 0.0 | 0.0 | 0.00 | 0.02 | 0.02 | 95 | 1015.3 |
| 20260504201008 | 59 | 0 | 0.0 | 0.0 | 0.00 | 0.02 | 0.02 | 95 | 1015.1 |
| 20260504200009 | 59 | 0 | 0.0 | 0.0 | 0.00 | 0.02 | 0.02 | 95 | 1015.1 |